This demonstration page uses our WeatherBlox Daily Observations layout. Learn more.

Left ArrowRight Arrow

41.86663, -103.66717

Hourly Observations for April 5, 2018

Temp ( °F °C ) Dew Point ( °F °C ) Humidity (%) Winds ( mph kmh ) Pressure ( in mb ) Visibility ( mi km ) Precip ( " mm )
12:53 am 00:53 Clear 34 1.1 27 -2.8 76 76 ENE 9 15 29.98 1015 10 16 N/A
1:53 am 01:53 Clear 30 -1.1 26 -3.3 85 85 N N/A 29.99 1016 10 16 N/A
2:53 am 02:53 Clear 29 -1.7 25 -3.9 85 85 NE 7 11 29.98 1015 10 16 N/A
3:53 am 03:53 Clear 29 -1.7 25 -3.9 85 85 ENE 8 13 29.97 1015 10 16 N/A
4:53 am 04:53 Clear 28 -2.2 24 -4.4 85 85 undefined N/A 29.96 1015 10 16 N/A
5:53 am 05:53 Clear 25 -3.9 22 -5.6 88 88 undefined N/A 29.99 1016 10 16 N/A
6:53 am 06:53 Sunny 27 -2.8 24 -4.4 89 89 NE 3 6 30.00 1016 10 16 N/A
7:53 am 07:53 Sunny 34 1.1 28 -2.2 79 79 E 5 7 30.01 1016 10 16 N/A
8:53 am 08:53 Sunny 38 3.3 28 -2.2 68 68 ESE 6 9 29.99 1016 10 16 N/A
9:53 am 09:53 Sunny 43 6.1 29 -1.7 58 58 VRB 6 9 29.99 1016 10 16 N/A
10:53 am 10:53 Sunny 48 8.9 30 -1.1 50 50 N N/A 29.99 1016 10 16 N/A
11:53 am 11:53 Sunny 54 12.2 30 -1.1 40 40 VRB 3 6 29.98 1015 10 16 N/A
12:53 pm 12:53 Sunny 58 14.4 30 -1.1 35 35 N 14 22 29.96 1015 10 16 N/A
1:53 pm 13:53 Sunny 59 15 31 -0.6 35 35 NNE 16 26 29.95 1014 10 16 N/A
2:53 pm 14:53 Sunny 58 14.4 32 undefined 38 38 N 12 19 29.96 1015 10 16 N/A
3:53 pm 15:53 Sunny 56 13.3 32 undefined 40 40 NE 10 17 29.96 1015 10 16 N/A
4:53 pm 16:53 Partly Cloudy 54 12.2 32 undefined 43 43 NE 13 20 29.98 1015 10 16 N/A
5:53 pm 17:53 Cloudy 50 10 32 undefined 50 50 NE 16 26 30.01 1016 10 16 N/A
6:53 pm 18:53 Cloudy 45 7.2 32 undefined 61 61 NE 18 30 30.03 1017 10 16 N/A
7:53 pm 19:53 Cloudy 42 5.6 32 undefined 68 68 NE 17 28 30.00 1016 10 16 N/A
8:53 pm 20:53 Mostly Cloudy 40 4.4 31 -0.6 70 70 ENE 17 28 30.04 1017 10 16 N/A
10:53 pm 22:53 Cloudy 36 2.2 31 -0.6 82 82 ENE 15 24 30.05 1018 10 16 N/A
11:43 pm 23:43 Cloudy 34 1.1 31 -0.6 89 89 ENE 15 24 30.12 1020 10 16 N/A
11:53 pm 23:53 Cloudy 34 1.1 31 -0.6 89 89 ENE 16 26 30.03 1017 10 16 N/A

Powered by AerisWeather